Regional Weather Roundup
Issued by NWS

Home | Current Version | Previous Version | Text Only | Print | Product List | Glossary On
Versions: 1 2 3 4 5 6 7 8 9 10 11 12 13 14 15 16 17 18 19 20 21 22 23 24 25 26 27 28 29 30 31 32 33 34 35 36 37 38 39 40 41 42 43 44 45 46 47 48 49 50
000
ASUS46 KSEW 102010
RWRWA

WASHINGTON REGIONAL WEATHER ROUNDUP
NATIONAL WEATHER SERVICE SEATTLE WA
100 PM PDT THU JUL 10 2014

NOTE:"FAIR" INDICATES FEW OR NO CLOUDS BELOW 12,000 FEET WITH NO
SIGNIFICANT WEATHER AND/OR OBSTRUCTIONS TO VISIBILITY.

WAZ505-507>509-102100-
SEATTLE, TACOMA, EVERETT, AND VICINITY

CITY           SKY/WX    TMP DP  RH WIND       PRES   REMARKS
EVERETT        SUNNY     73  54  51 VRB6      29.96F
BOEING FIELD   SUNNY     77  54  44 VRB6      29.94F
RENTON         SUNNY     75  55  49 VRB5      29.93F
SEATAC AIRPORT SUNNY     75  55  49 W9        29.96F
JBLM-MCCHORD   SUNNY     74  55  52 VRB3      29.95F
PUYALLUP       FAIR      75  55  50 N6        29.96F
JBLM-FT LEWIS  SUNNY     74  54  49 N9        29.95F
TACOMA NARROWS SUNNY     70  55  59 SW6       29.95F
$$

WAZ001-503-506-510-514-515-102100-
NORTH INTERIOR

CITY           SKY/WX    TMP DP  RH WIND       PRES   REMARKS
BELLINGHAM     SUNNY     72  56  57 VRB6      29.94F
FRIDAY HARBOR  SUNNY     74  54  49 N10       29.96F
EASTSOUND      SUNNY     64  57  77 N8        29.95F
PORT ANGELES   SUNNY     72  51  47 E8        29.97F
NAS WHIDBEY    MOSUNNY   70  54  56 W8        29.96F
BURLINGTON     SUNNY     73  57  56 NW8       29.96S
$$

WAZ020-022-039-040-504-511-512-102100-
SOUTHWEST INTERIOR

CITY           SKY/WX    TMP DP  RH WIND       PRES   REMARKS
SHELTON        SUNNY     78  54  43 SE3       29.93F
OLYMPIA        SUNNY     74  54  49 N6        29.95F
CHEHALIS       FAIR      75  57  53 NE5       29.95F
KELSO          SUNNY     72  57  60 W3        29.97F
VANCOUVER      SUNNY     73  55  53 VRB5      29.92F
SCAPPOOSE, OR  SUNNY     75  58  55 VRB5      29.92F
PORTLAND, OR   SUNNY     73  56  54 W7        29.93F
$$

WAZ021-516-517-102100-
WASHINGTON COAST

CITY           SKY/WX    TMP DP  RH WIND       PRES   REMARKS
FORKS          SUNNY     65  57  75 VRB6      29.97F
HOQUIAM        SUNNY     63  56  78 SW10      29.97F
ASTORIA, OR    MOSUNNY   64  56  75 SW6       29.97F
$$

WAZ019-023-024-040-518-519-102100-
CASCADE MOUNTAINS AND COLUMBIA GORGE

CITY           SKY/WX    TMP DP  RH WIND       PRES   REMARKS
STAMPEDE PASS  NOT AVBL
TROUTDALE, OR  SUNNY     73  56  54 CALM      29.91F
THE DALLES, OR SUNNY     86  49  27 NW21      29.80F
$$

WAZ026-027-041>044-520-521-102100-
EAST SLOPES

CITY           SKY/WX    TMP DP  RH WIND       PRES   REMARKS
OMAK           SUNNY     91  41  17 N20G25    29.84F
WENATCHEE      SUNNY     89  30  12 W6        29.81F
ELLENSBURG     SUNNY     91  28  10 CALM      29.85F
YAKIMA         SUNNY     91  27  10 CALM      29.82F
$$

WAZ028-034-035-102100-
COLUMBIA BASIN

CITY           SKY/WX    TMP DP  RH WIND       PRES   REMARKS
EPHRATA        SUNNY     92  35  13 NE8       29.80F
MOSES LAKE     SUNNY     94  35  12 NW9       29.80F
HANFORD        NOT AVBL
PASCO          SUNNY     88  41  19 VRB3      29.80F
HERMISTON, OR  SUNNY     87  45  23 MISG      29.81F
$$

WAZ036>038-102100-
NORTHEAST WASHINGTON

CITY           SKY/WX    TMP DP  RH WIND       PRES   REMARKS
SPOKANE GEIGER MOSUNNY   84  37  18 SW6       29.87F
SPOKANE FELTS  SUNNY     86  42  21 VRB3      29.85F
FAIRCHILD AFB  SUNNY     85  41  21 NW9       29.88S
COEURDALENE,ID SUNNY     82  50  32 W5        29.87R
DEER PARK      SUNNY     82  46  28 VRB3      29.87F
$$

WAZ029>033-102100-
SOUTHEAST WASHINGTON

CITY           SKY/WX    TMP DP  RH WIND       PRES   REMARKS
PULLMAN        SUNNY     83  42  23 W10       29.91F
LEWISTON, ID   SUNNY     91  44  19 VRB6      29.82F
WALLA WALLA    SUNNY     89  35  14 SW10G17   29.84F
PENDLETON, OR  SUNNY     88  36  15 NW7G22    29.84F
$$


USA.gov is the U.S. government's official web portal to all federal, state and local government web resources and services.